Location: Liscomb Game Sanctuary
(45.1633°N, 62.5575°W)
Time: 22:41:40
(UTC-04:00)

Daily predictions for brighter satellites

Satellite Brightness Start Highest point End
(mag) Time Altitude Azimuth Time Altitude Azimuth Time Altitude Azimuth
Cosmos 1898 Rocket 3.7 16:52:50 10° S 16:57:52 55° ESE 17:03:00 10° NNE
Cosmos 1818 3.6 16:53:34 10° SSW 16:58:58 75° ESE 17:04:25 10° NE
IDEFIX/ARIANE 42P 3.3 16:55:44 10° S 17:00:51 59° W 17:05:59 10° NNW
Ariane Rocket 3.3 16:56:34 10° SE 17:01:20 44° ENE 17:06:09 10° N
Cosmos 1743 3.8 17:00:37 10° NNE 17:03:51 24° ENE 17:07:04 10° SE
Cosmos 389 Rocket 3.2 17:06:04 10° N 17:09:12 30° ENE 17:12:18 10° SE
Atlas Centaur 2 4.2 17:07:00 10° SSW 17:09:50 14° S 17:12:23 10° SSE
USA 238 DEB 4.1 17:05:01 10° NNW 17:11:49 46° NE 17:18:39 10° ESE
USA 238 4.1 17:05:07 10° NNW 17:11:54 46° NE 17:18:45 10° ESE
Cosmos 1937 Rocket 3.7 17:07:39 10° S 17:12:40 53° ESE 17:17:41 10° NNE
SMAP 3.2 17:09:03 10° SSE 17:13:33 52° ENE 17:18:05 10° N
Cosmos 2298 Rocket 4.3 17:09:11 10° S 17:14:19 52° ESE 17:19:28 10° NNE
Cosmos 1932 4.5 17:08:36 10° NW 17:15:03 80° NE 17:21:19 10° SE
AQUARIUS 4.3 17:12:20 10° SSE 17:16:43 54° ENE 17:21:07 10° N
Cosmos 2227 Rocket 2.8 17:13:06 10° N 17:18:14 34° NE 17:23:19 10° ESE
Cosmos 1656 Rocket 3.9 17:13:30 10° SSW 17:19:02 72° WNW 17:24:33 10° NNE
Cosmos 2219 3.1 17:15:17 10° NNW 17:20:56 80° ENE 17:26:33 10° SSE
Okean 1 3.2 17:19:05 10° S 17:23:01 68° E 17:26:59 10° NNE
ALOS 3.4 17:21:31 10° ESE 17:25:03 22° ENE 17:28:36 10° NNE
CZ-2C R/B 3.8 17:21:44 10° S 17:26:43 46° W 17:31:42 10° NNW
Cosmos 1428 Rocket 4.4 17:20:32 10° N 17:26:44 67° E 17:32:49 10° SSE
Cosmos 2142 Rocket 4.5 17:22:28 10° S 17:28:39 88° E 17:34:50 10° N
Cosmos 1500 3.9 17:25:33 10° NNW 17:29:16 56° W 17:32:57 10° S
NOSS 2-3 (D) 3.9 17:25:09 10° SW 17:29:49 89° NW 17:35:17 10° NE
Cosmos 1271 Rocket 2.9 17:27:51 10° N 17:31:30 45° ENE 17:35:11 10° SSE
Cosmos 1455 Rocket 3.4 17:27:21 10° N 17:31:37 43° ENE 17:35:48 10° SSE
Cosmos 1975 2.8 17:31:21 10° N 17:35:24 90° W 17:39:27 10° S
Cosmos 1544 Rocket 3.7 17:31:12 10° N 17:35:30 51° ENE 17:39:42 10° SSE
CORIOLIS 4.1 17:32:10 10° SSE 17:37:35 77° ENE 17:43:00 10° NNW
Cosmos 1484 Rocket 3.0 17:36:37 10° S 17:40:37 76° WSW 17:44:39 10° NNW
YAOGAN 1 2.7 17:37:05 10° SSE 17:41:16 51° ENE 17:45:30 10° N
NOSS 3-2 (A) 4.3 17:35:38 10° NNW 17:42:38 45° NE 17:50:17 10° ESE
Cosmos 990 Rocket 4.0 17:37:54 10° SSW 17:43:03 90° ESE 17:48:16 10° NNE
Cosmos 2279 Rocket 4.0 17:37:01 10° S 17:43:16 80° E 17:49:34 10° N
ISS -3.9 17:41:38 10° WNW 17:44:55 71° NNE 17:47:12 18° ESE
Cosmos 2297 Rocket 2.5 17:40:09 10° NNW 17:45:35 45° ENE 17:50:59 10° SE
ERS-2 2.8 17:43:11 10° SE 17:46:30 32° ENE 17:49:48 10° N
Abrixas rocket 2.1 17:44:06 10° WSW 17:47:21 78° SSE 17:48:57 27° ENE
NOSS 3-2 (C) 4.4 17:41:15 10° NNW 17:48:05 40° NE 17:54:55 12° ESE
CZ-4 R/B 1.2 17:44:46 10° SSE 17:48:38 87° ENE 17:52:35 10° NNW
Cosmos 1943 Rocket 4.2 17:45:27 10° W 17:49:52 23° NW 17:54:18 10° N
USA 116 3.2 17:49:47 15° NNE 17:52:19 59° E 17:55:24 10° S
COSMO-SKYMED 1 3.0 17:49:57 15° NNE 17:53:14 39° E 17:57:19 10° SSE
Meteor 1-13 Rocket 4.2 17:47:53 10° S 17:53:19 58° E 17:58:55 10° NNE
ATLAS 2AS CENTAUR R/B 3.0 17:49:01 10° SSW 17:56:47 78° ESE 18:03:47 15° NE
Meteor 2-4 Rocket 3.8 17:54:12 10° SSE 17:59:27 50° E 18:04:38 10° NNE
Cosmos 2150 Rocket 4.3 17:54:02 10° SSW 17:59:29 75° WNW 18:04:58 10° NNE
Cosmos 1666 2.7 17:58:02 10° N 18:01:48 80° W 18:05:32 10° S
ATLAS 3B R/B 2.5 17:56:21 10° NW 18:03:06 78° NE 18:09:37 10° SE
Cosmos 1975 Rocket 4.2 18:01:00 10° SSW 18:05:19 46° WNW 18:09:40 10° N
Cosmos 1656 4.1 18:04:41 10° S 18:09:48 38° ESE 18:11:46 29° ENE
SJ 16-02 1.8 18:05:57 10° S 18:10:01 39° ESE 18:10:58 34° ENE
SPOT 3 Rocket 3.5 18:06:59 10° SSE 18:12:05 61° ENE 18:17:11 10° N
BREEZE-M DEB (TANK) 3.2 18:10:13 10° WNW 18:12:38 45° N 18:13:51 33° NE
Cosmos 158 Rocket 3.8 18:10:01 10° NNW 18:15:11 81° ENE 18:20:10 10° SSE
MTI 3.6 18:15:42 44° NNE 18:16:37 80° ESE 18:19:51 10° S
Cosmos 2369 3.9 18:11:28 10° S 18:16:56 51° ESE 18:19:30 30° NE
NOSS 3-4 (A) 4.4 18:13:13 10° SSE 18:18:19 27° ESE 18:19:00 27° ESE
NOSS 3-4 (C) 4.4 18:13:20 10° SSE 18:18:26 27° ESE 18:19:03 27° ESE
Cosmos 2278 3.9 18:13:19 10° S 18:18:46 50° ESE 18:21:09 31° NE
Meteor 1-19 Rocket 4.4 18:14:49 10° SSW 18:20:29 78° WNW 18:26:18 10° N
SKYMED 3 4.4 18:20:24 20° NNE 18:23:26 83° ESE 18:27:45 10° SSW
Cosmos 2263 Rocket 4.3 18:24:02 10° NNE 18:24:05 10° NNE 18:24:05 10° NNE
Cosmos 1536 Rocket 3.7 18:29:02 10° SSW 18:33:23 74° W 18:36:25 19° N
EO 1 Del DPAF 3.1 18:32:41 53° NNE 18:33:31 89° ENE 18:37:20 10° SSW
Cosmos 1025 Rocket 4.3 18:34:58 10° SSE 18:37:03 26° SSE 18:37:03 26° SSE
FENGYUN 3A 3.6 18:34:10 10° SSE 18:39:33 83° WSW 18:44:57 10° NNW
Cosmos 1269 Rocket 3.9 18:35:40 10° NNW 18:41:01 84° ENE 18:46:19 10° SSE
SKYMED 2 3.9 18:38:35 21° N 18:41:24 64° WNW 18:45:41 10° SSW
Cosmos 2266 Rocket 4.2 18:36:12 10° NNW 18:42:15 71° W 18:48:20 10° S
Cosmos 1697 Rocket 2.8 18:38:57 10° S 18:44:22 49° ESE 18:44:23 49° ESE
FengYun 1-2 T 4.2 18:39:48 10° SSE 18:45:19 62° ENE 18:50:54 10° N
CENTAUR R/B 3.4 18:39:00 10° NNW 18:46:13 42° NE 18:47:34 39° ENE
Cosmos 2082 3.9 18:42:41 10° NNW 18:48:17 68° WSW 18:53:51 10° SSE
NOAA 12 4.3 18:43:47 10° S 18:49:02 70° WSW 18:54:18 10° NNW
Cosmos 1125 Rocket 3.5 18:46:05 10° SSW 18:51:24 81° WNW 18:53:18 41° NNE
ALOS 3.3 18:57:43 10° S 19:02:11 46° W 19:06:42 10° NNW
Cosmos 2227 Rocket 3.4 18:57:04 10° NW 19:02:23 42° WSW 19:07:39 10° S
Meteor 1-23 Rocket 4.4 18:56:58 10° SSW 19:02:42 73° WNW 19:06:17 24° N
DELTA 2 R/B (1) 4.0 19:00:51 10° WSW 19:06:11 48° S 19:06:33 48° SSE
Cosmos 1244 Rocket 4.3 19:06:39 10° N 19:12:50 89° W 19:19:00 10° S
ISS -0.7 19:18:44 10° W 19:19:54 15° WSW 19:19:54 15° WSW
BREEZE-M DEB (TANK) 4.4 19:20:21 10° WNW 19:23:32 64° SW 19:23:32 64° SW
Cosmos 1980 Rocket 3.5 19:18:19 10° S 19:20:55 28° S 19:20:55 28° S
Gblst 52 Del rocket 4.4 19:21:25 10° WNW 19:26:35 74° WNW 19:26:35 74° WNW
Cosmos 2297 Rocket 3.9 19:24:33 10° NW 19:29:25 30° WSW 19:34:16 10° SSW
NOSS 3-2 (C) 4.2 19:32:05 10° NW 19:39:33 66° WSW 19:42:29 41° S
ATLAS 2AS CENTAUR R/B 4.1 19:41:20 10° W 19:48:36 37° NW 19:51:14 30° N
SJ 16-02 3.7 19:45:17 10° WSW 19:48:01 22° WNW 19:48:01 22° WNW
CENTAUR R/B 3.9 20:29:38 10° NW 20:34:48 44° WNW 20:34:48 44° WNW
